Booneville, Arkansas, United States (72927)
Lat: 35.14N, Lon: 93.92W
Wx Zone: ARZ030
Local Info
Past Weather Observations for Today

NOTE: This archive is for the closest National Weather Service station to Booneville. Information may differ from the station used for current weather conditions.

Click here for Long-term Archive

Time Weather Temperature Dewpoint Humidity Pressure Winds Precip Visibility
10:53
Overcast
72°F / 22°C 66°F / 19°C 83% 30.09 in
(1019 mb)
Variable 5.8 mph
(Variable 9 kph)
0.00 in
(0.00 mm)
10SM
10:44
Overcast
72°F / 22°C 66°F / 19°C 83% 30.09 in
(1019 mb)
E 5.8 mph
(E 9 kph)
0.00 in
(0.00 mm)
10SM
10:10
Overcast
Light Rain
70°F / 21°C 66°F / 19°C 88% 30.09 in
(1019 mb)
ENE 6.9 mph
(ENE 11 kph)
0.00 in
(0.00 mm)
10SM
09:53
Overcast
70°F / 21°C 64°F / 18°C 83% 30.09 in
(1019 mb)
ENE 4.6 mph
(ENE 7 kph)
- 10SM
09:45
Overcast
70°F / 21°C 64°F / 18°C 83% 30.09 in
(1019 mb)
E 5.8 mph
(E 9 kph)
- 10SM
09:15
Overcast
70°F / 21°C 64°F / 18°C 83% 30.09 in
(1019 mb)
E 5.8 mph
(E 9 kph)
- 10SM
09:02
Overcast
70°F / 21°C 64°F / 18°C 83% 30.09 in
(1019 mb)
E 4.6 mph
(E 7 kph)
- 10SM
08:53
Overcast
70°F / 21°C 64°F / 18°C 83% 30.09 in
(1019 mb)
E 6.9 mph
(E 11 kph)
- 10SM
07:53
Overcast
66°F / 19°C 64°F / 18°C 94% 30.09 in
(1019 mb)
E 5.8 mph
(E 9 kph)
0.00 in
(0.00 mm)
10SM
06:53
Overcast
Light Rain
66°F / 19°C 64°F / 18°C 94% 30.09 in
(1019 mb)
SE 4.6 mph
(SE 7 kph)
0.02 in
(0.51 mm)
7SM
06:01
Overcast
Light Rain
66°F / 19°C 64°F / 18°C 94% 30.06 in
(1018 mb)
SE 6.9 mph
(SE 11 kph)
0.00 in
(0.00 mm)
4SM
05:53
Overcast
Light Rain
66°F / 19°C 64°F / 18°C 94% 30.06 in
(1018 mb)
SE 4.6 mph
(SE 7 kph)
0.07 in
(1.78 mm)
4SM
05:36
Overcast
Light Rain
66°F / 19°C 64°F / 18°C 94% 30.09 in
(1019 mb)
SE 5.8 mph
(SE 9 kph)
0.06 in
(1.52 mm)
4SM
04:53
Overcast
Light Rain
68°F / 20°C 66°F / 19°C 94% 30.06 in
(1018 mb)
ESE 3.5 mph
(ESE 6 kph)
0.05 in
(1.27 mm)
4SM
04:39
Overcast
Light Rain
68°F / 20°C 66°F / 19°C 94% 30.06 in
(1018 mb)
E 3.5 mph
(E 6 kph)
0.04 in
(1.02 mm)
5SM
04:14
Overcast
Light Rain
68°F / 20°C 66°F / 19°C 94% 30.06 in
(1018 mb)
E 4.6 mph
(E 7 kph)
0.01 in
(0.25 mm)
5SM
03:53
Overcast
Light Rain
70°F / 21°C 66°F / 19°C 88% 30.06 in
(1018 mb)
E 4.6 mph
(E 7 kph)
0.01 in
(0.25 mm)
6SM
02:53
Overcast
70°F / 21°C 66°F / 19°C 88% 30.06 in
(1018 mb)
E 4.6 mph
(E 7 kph)
- 10SM
02:40
Overcast
70°F / 21°C 66°F / 19°C 88% 30.06 in
(1018 mb)
E 4.6 mph
(E 7 kph)
- 10SM
02:11
Overcast
70°F / 21°C 66°F / 19°C 88% 30.06 in
(1018 mb)
E 4.6 mph
(E 7 kph)
- 10SM
01:53
Overcast
70°F / 21°C 66°F / 19°C 88% 30.06 in
(1018 mb)
E 3.5 mph
(E 6 kph)
0.01 in
(0.25 mm)
10SM
01:10
Overcast
Light Rain
70°F / 21°C 66°F / 19°C 88% 30.04 in
(1017 mb)
E 5.8 mph
(E 9 kph)
0.01 in
(0.25 mm)
10SM
01:00
Overcast
Light Rain
70°F / 21°C 66°F / 19°C 88% 30.06 in
(1018 mb)
E 4.6 mph
(E 7 kph)
0.01 in
(0.25 mm)
10SM
00:53
Overcast
Light Rain
70°F / 21°C 66°F / 19°C 88% 30.06 in
(1018 mb)
E 4.6 mph
(E 7 kph)
0.03 in
(0.76 mm)
10SM
00:06
Mostly Cloudy
Light Rain
70°F / 21°C 66°F / 19°C 88% 30.06 in
(1018 mb)
E 3.5 mph
(E 6 kph)
0.01 in
(0.25 mm)
8SM
Time Weather Temperature Dewpoint Humidity Pressure Winds Precip Visibility


Weather for websites

WeatherForYou.com, LLC is not responsible for any damages or problems caused by this service. Current weather conditions are obtained from the closest station including government and personal stations which may have varying degrees of accuracy. Weather forecasts are derived from the NOAA NDFD. Like all things, this site belongs to Jesus Christ... He just trusts me to maintain it. If you have any questions or comments email webmaster@weatherforyou.com

Copyright © 2014, WeatherForYou.com LLC. All rights reserved.